Weather History for KGUY - November, 2011

Change the Weather History Date:

Wednesday, November 23, 2011

  Actual Average Record
Temperature  
Mean Temperature 52 °F 42 °F  
Max Temperature 72 °F 57 °F - ()
Min Temperature 32 °F 28 °F - ()
Degree Days  
Heating Degree Days 13 23  
Month to date heating degree days 420 410  
Since 1 July heating degree days 649 719  
Cooling Degree Days 0 0  
Month to date cooling degree days 0 0  
Year to date cooling degree days 2163 1481  
Growing Degree Days 2 (Base 50)    
Moisture  
Dew Point 30 °F    
Average Humidity 49    
Maximum Humidity 78    
Minimum Humidity 20    
Precipitation  
Precipitation 0.00 in 0.02 in - ()
Month to date precipitation 0.52 0.44  
Year to date precipitation 7.18 18.57  
Snow  
Snow 0.00 in - - ()
Month to date snowfall T  
Since 1 July snowfall 1.5  
Since 1 September snowfall 1.5  
Snow Depth 0.00 in    
Sea Level Pressure  
Sea Level Pressure 30.15 in    
Wind  
Wind Speed 7 mph (SSW)    
Max Wind Speed 15 mph    
Max Gust Speed 18 mph    
Visibility 10 miles    
Events      
T = Trace of Precipitation, MM = Missing Value Source: NWS Daily Summary

Daily Weather History Graph

Daily Weather History Graph

Search for Another Location

Airport or City:

Trip Planner

Search our weather history database for the weather conditions in past years. The results will help you decide how hot, cold, wet, or windy it might be!

Date:

Astronomy

Nov. 23, 2011 Rise Set
Actual Time 7:31 AM CST 5:32 PM CST
Civil Twilight 7:03 AM CST 6:00 PM CST
Nautical Twilight 6:32 AM CST 6:32 PM CST
Astronomical Twilight 6:01 AM CST 7:03 PM CST
Moon 5:39 AM CST (11/23) 4:15 PM CST (11/23)
Length of Visible Light 10h 56m
Length of Day
10h 00m
Waning Crescent, 3% of the Moon is Illuminated
Nov 23
Waning Crescent
Nov 25
New
Dec 2
First Quarter
Dec 10
Full
Dec 17
Last Quarter

Hourly Weather History & Observations

Time (CST) Temp. Windchill Dew Point Humidity Pressure Visibility Wind Dir Wind Speed Gust Speed Precip Events Conditions
12:53 AM 36.0 °F 32.1 °F 28.9 °F 76% 30.19 in 10.0 mi SSW 4.6 mph - N/A   Clear
1:53 AM 41.0 °F 34.7 °F 30.9 °F 67% 30.18 in 10.0 mi WSW 10.4 mph - N/A   Clear
3:53 AM 39.9 °F 33.9 °F 30.9 °F 70% 30.18 in 10.0 mi WSW 9.2 mph - N/A   Clear
6:53 AM 36.0 °F 32.1 °F 28.9 °F 76% 30.22 in 10.0 mi WSW 4.6 mph - N/A   Clear
7:53 AM 32.0 °F - 27.0 °F 82% 30.25 in 10.0 mi Calm Calm - N/A   Clear
8:53 AM 41.0 °F 39.0 °F 30.0 °F 65% 30.25 in 10.0 mi West 3.5 mph - N/A   Clear
9:53 AM 48.9 °F - 30.9 °F 50% 30.24 in 10.0 mi West 4.6 mph - N/A   Clear
10:53 AM 59.0 °F - 32.0 °F 36% 30.22 in 10.0 mi WNW 4.6 mph - N/A   Clear
11:53 AM 64.9 °F - 28.9 °F 26% 30.18 in 10.0 mi Calm Calm - N/A   Clear
12:53 PM 68.0 °F - 27.0 °F 21% 30.14 in 10.0 mi South 6.9 mph - N/A   Clear
1:53 PM 70.0 °F - 28.0 °F 21% 30.10 in 10.0 mi South 5.8 mph - N/A   Clear
2:53 PM 71.1 °F - 28.0 °F 20% 30.08 in 10.0 mi South 10.4 mph - N/A   Clear
3:53 PM 71.1 °F - 30.9 °F 23% 30.07 in 10.0 mi South 11.5 mph - N/A   Clear
4:53 PM 66.9 °F - 28.9 °F 24% 30.07 in 10.0 mi South 11.5 mph - N/A   Clear
5:53 PM 60.1 °F - 32.0 °F 35% 30.09 in 10.0 mi South 10.4 mph - N/A   Clear
6:53 PM 48.0 °F - 30.9 °F 52% 30.13 in 10.0 mi South 5.8 mph - N/A   Clear
7:53 PM 46.0 °F 42.5 °F 32.0 °F 58% 30.15 in 10.0 mi SSW 6.9 mph - N/A   Clear
8:53 PM 46.0 °F 41.9 °F 30.9 °F 56% 30.14 in 10.0 mi SSW 8.1 mph - N/A   Clear
9:53 PM 44.1 °F 40.1 °F 30.0 °F 58% 30.12 in 10.0 mi SSW 6.9 mph - N/A   Clear
10:53 PM 39.9 °F 33.9 °F 28.9 °F 65% 30.10 in 10.0 mi SSW 9.2 mph - N/A   Clear
11:53 PM 41.0 °F 35.2 °F 28.9 °F 62% 30.07 in 10.0 mi SSW 9.2 mph - N/A   Clear